Starlink 6147

operational
NORAD ID: 57120 Int'l Des: 2023-090 Owner: SPXS Country: US Constellation: starlink
LEOCIRCULAR

Über Starlink 6147

Beschreibung wird geladen...

Live-Position

3D-Globus wird geladen...

Nächste Überflüge

Höhenverlauf

Altitude vs Time

uPlot chart will show altitude changes over time

Zweizeiliger Elementsatz

1 57120U 23090V 25352.31543415 -.00000677 00000-0 -35059-4 0 9990
2 57120 43.0040 356.7250 0001095 272.4760 87.5957 15.02535058138174
Epoch: 18. Dez. 2025 • Age: 5 hours

Aktueller Status

Höhe 559.3 km
Geschwindigkeit 7.59 km/s
Subsatellitenpunkt 23.84°N, 134.92°W
Startdatum 23. Juni 2023
Alter 2.4 years
Typ internet

Technische Details

Klassifizierung Payload
Masse 305.00 kg
Trockenmasse 290.00 kg
Gesamtmasse 305.00 kg
Länge 0.20 m
Durchmesser 2.80 m
Spannweite 9.00 m
Form Box + pan
Hersteller SPXS
Bus-Typ Starlink
Phasenstatus In Orbit
Besitzer/Staat SPXS/US

Große Konstellationen

Loading constellations...